TimeEDT,TemperatureF,Dew PointF,Humidity,Sea Level PressureIn,VisibilityMPH,Wind Direction,Wind SpeedMPH,Gust SpeedMPH,PrecipitationIn,Events,Conditions,WindDirDegrees,DateUTC
12:15 AM,60.8,46.4,59,29.63,7.0,NW,9.2,16.1,N/A,,Overcast,310,2012-10-29 04:15:00
12:35 AM,60.8,46.4,59,29.64,7.0,NW,12.7,18.4,N/A,,Overcast,320,2012-10-29 04:35:00
12:55 AM,60.8,46.4,59,29.64,10.0,NW,10.4,-,N/A,,Overcast,310,2012-10-29 04:55:00
1:15 AM,59.0,35.6,42,29.64,10.0,NW,6.9,-,N/A,,Overcast,310,2012-10-29 05:15:00
1:35 AM,59.0,32.0,36,29.64,10.0,NW,9.2,17.3,N/A,,Overcast,320,2012-10-29 05:35:00
1:55 AM,59.0,37.4,45,29.64,10.0,NW,8.1,19.6,N/A,,Overcast,310,2012-10-29 05:55:00
2:15 AM,59.0,44.6,59,29.64,10.0,NW,11.5,18.4,N/A,,Overcast,310,2012-10-29 06:15:00
2:35 AM,57.2,42.8,59,29.64,10.0,NW,10.4,-,N/A,,Overcast,310,2012-10-29 06:35:00
2:55 AM,57.2,-0.4,10,29.64,10.0,NW,8.1,17.3,N/A,,Overcast,310,2012-10-29 06:55:00
3:15 AM,55.4,17.6,23,29.64,10.0,NW,9.2,16.1,N/A,,Mostly Cloudy,310,2012-10-29 07:15:00
3:35 AM,55.4,17.6,23,29.64,10.0,NW,5.8,-,N/A,,Mostly Cloudy,310,2012-10-29 07:35:00
3:55 AM,53.6,35.6,51,29.64,10.0,NW,8.1,17.3,N/A,,Mostly Cloudy,310,2012-10-29 07:55:00
4:15 AM,53.6,37.4,54,29.64,10.0,NW,9.2,16.1,N/A,,Overcast,310,2012-10-29 08:15:00
4:35 AM,53.6,37.4,54,29.64,10.0,NW,11.5,16.1,N/A,,Overcast,310,2012-10-29 08:35:00
4:55 AM,53.6,32.0,44,29.64,10.0,NW,9.2,-,N/A,,Overcast,310,2012-10-29 08:55:00
5:15 AM,51.8,30.2,44,29.64,10.0,NW,10.4,18.4,N/A,,Overcast,320,2012-10-29 09:15:00
5:35 AM,51.8,35.6,54,29.65,10.0,NW,9.2,16.1,N/A,,Overcast,320,2012-10-29 09:35:00
6:15 AM,50.0,35.6,58,29.64,10.0,NW,9.2,17.3,N/A,,Clear,310,2012-10-29 10:15:00
6:55 AM,50.0,35.6,58,29.64,7.0,NW,6.9,-,N/A,,Clear,310,2012-10-29 10:55:00
7:15 AM,50.0,35.6,58,29.65,10.0,WNW,6.9,-,N/A,,Clear,300,2012-10-29 11:15:00
7:35 AM,48.2,32.0,54,29.65,7.0,WNW,4.6,-,N/A,,Clear,300,2012-10-29 11:35:00
7:55 AM,48.2,37.4,66,29.65,7.0,WNW,4.6,-,N/A,,Clear,300,2012-10-29 11:55:00
8:15 AM,48.2,37.4,66,29.66,7.0,WNW,8.1,-,N/A,,Clear,300,2012-10-29 12:15:00
8:35 AM,50.0,37.4,62,29.66,7.0,WNW,6.9,-,N/A,,Clear,300,2012-10-29 12:35:00
8:55 AM,50.0,35.6,58,29.66,7.0,WNW,8.1,-,N/A,,Clear,300,2012-10-29 12:55:00
9:15 AM,51.8,35.6,54,29.66,10.0,NW,10.4,18.4,N/A,,Clear,310,2012-10-29 13:15:00
9:35 AM,53.6,35.6,51,29.66,10.0,NW,15.0,19.6,N/A,,Clear,320,2012-10-29 13:35:00
9:55 AM,53.6,35.6,51,29.65,7.0,NNW,11.5,20.7,N/A,,Clear,330,2012-10-29 13:55:00
10:15 AM,55.4,35.6,47,29.65,10.0,NW,15.0,18.4,N/A,,Clear,320,2012-10-29 14:15:00
10:35 AM,55.4,35.6,47,29.65,10.0,NW,11.5,23.0,N/A,,Clear,310,2012-10-29 14:35:00
10:55 AM,55.4,33.8,44,29.65,10.0,NW,12.7,25.3,N/A,,Clear,320,2012-10-29 14:55:00
11:15 AM,59.0,33.8,39,29.64,10.0,WNW,11.5,20.7,N/A,,Clear,300,2012-10-29 15:15:00
11:55 AM,59.0,33.8,39,29.63,10.0,NW,11.5,21.9,N/A,,Clear,310,2012-10-29 15:55:00
12:15 PM,59.0,32.0,36,29.62,10.0,NNW,11.5,25.3,N/A,,Clear,330,2012-10-29 16:15:00
12:35 PM,60.8,33.8,36,29.62,10.0,NW,16.1,24.2,N/A,,Clear,310,2012-10-29 16:35:00
12:55 PM,60.8,33.8,36,29.61,10.0,NW,16.1,23.0,N/A,,Clear,320,2012-10-29 16:55:00
1:15 PM,62.6,33.8,34,29.60,10.0,WNW,15.0,23.0,N/A,,Clear,300,2012-10-29 17:15:00
1:35 PM,62.6,33.8,34,29.59,10.0,WNW,13.8,21.9,N/A,,Clear,290,2012-10-29 17:35:00
1:55 PM,62.6,33.8,34,29.58,10.0,NW,13.8,23.0,N/A,,Scattered Clouds,310,2012-10-29 17:55:00
2:15 PM,62.6,33.8,34,29.57,10.0,NW,16.1,25.3,N/A,,Scattered Clouds,320,2012-10-29 18:15:00
2:35 PM,62.6,33.8,34,29.57,10.0,NW,10.4,20.7,N/A,,Scattered Clouds,310,2012-10-29 18:35:00
3:15 PM,64.4,33.8,32,29.55,10.0,NW,16.1,23.0,N/A,,Scattered Clouds,310,2012-10-29 19:15:00
3:55 PM,62.6,33.8,34,29.54,10.0,WNW,10.4,18.4,N/A,,Mostly Cloudy,300,2012-10-29 19:55:00
4:35 PM,62.6,33.8,34,29.53,10.0,WNW,12.7,21.9,N/A,,Overcast,300,2012-10-29 20:35:00
4:55 PM,62.6,33.8,34,29.53,10.0,NW,6.9,17.3,N/A,,Overcast,310,2012-10-29 20:55:00
5:15 PM,62.6,33.8,34,29.53,10.0,NW,10.4,17.3,N/A,,Overcast,310,2012-10-29 21:15:00
5:55 PM,62.6,33.8,34,29.53,10.0,WNW,10.4,17.3,N/A,,Overcast,300,2012-10-29 21:55:00
6:15 PM,60.8,33.8,36,29.53,10.0,NW,10.4,19.6,N/A,,Overcast,320,2012-10-29 22:15:00
6:35 PM,60.8,33.8,36,29.53,7.0,NW,8.1,18.4,N/A,,Overcast,310,2012-10-29 22:35:00
6:55 PM,60.8,33.8,36,29.54,10.0,WNW,9.2,-,N/A,,Overcast,300,2012-10-29 22:55:00
7:15 PM,59.0,33.8,39,29.54,10.0,WNW,9.2,19.6,N/A,,Overcast,300,2012-10-29 23:15:00
7:35 PM,59.0,32.0,36,29.55,7.0,WNW,10.4,17.3,N/A,,Overcast,290,2012-10-29 23:35:00
7:55 PM,59.0,32.0,36,29.55,10.0,WNW,9.2,19.6,N/A,,Overcast,290,2012-10-29 23:55:00
8:15 PM,59.0,32.0,36,29.55,10.0,WNW,9.2,24.2,N/A,,Overcast,290,2012-10-30 00:15:00
8:35 PM,57.2,32.0,38,29.56,10.0,WNW,9.2,17.3,N/A,,Overcast,300,2012-10-30 00:35:00
11:55 PM,51.8,32.0,47,29.58,7.0,WNW,8.1,-,N/A,,Clear,290,2012-10-30 03:55:00